This demonstration page uses our WeatherBlox Daily Observations layout. Learn more.

Hourly Observations for December 27, 2017

Temp ( °F °C ) Dew Point ( °F °C ) Humidity (%) Winds ( mph kmh ) Pressure ( in mb ) Visibility ( mi km ) Precip ( " mm )
12:54 am 00:54 Clear -13 -25 -16 -26.7 86 86 Calm 30.84 1045 10 16.0934 0 0
1:54 am 01:54 Clear -13 -25 -16 -26.7 86 86 Calm 30.84 1044 10 16.0934 0 0
2:54 am 02:54 Clear -15 -26.1 -20 -28.9 77 77 Calm 30.85 1045 10 16.0934 0 0
3:54 am 03:54 Clear -14 -25.6 -18 -27.8 82 82 Calm 30.83 1044 10 16.0934 0 0
4:54 am 04:54 Clear -17 -27.2 -20 -28.9 85 85 Calm 30.85 1045 10 16.0934 0 0
5:54 am 05:54 Clear -15 -26.1 -19 -28.3 82 82 N 3 6 30.84 1044 10 16.0934 0 0
6:54 am 06:54 Clear -13 -25 -18 -27.8 78 78 Calm 30.83 1044 10 16.0934 0 0
7:54 am 07:54 Sunny -16 -26.7 -21 -29.4 78 78 N 5 7 30.86 1045 10 16.0934 0 0
8:54 am 08:54 Mostly Cloudy -13 -25 -19 -28.3 74 74 Calm 30.87 1046 10 16.0934 0 0
9:54 am 09:54 Cloudy -7 -21.7 -9 -22.8 91 91 Calm 30.86 1045 10 16.0934 0 0
10:54 am 10:54 Cloudy 1 -17.2 -8 -22.2 65 65 SSE 14 22 30.82 1044 10 16.0934 0 0
11:54 am 11:54 Cloudy 4 -15.6 -8 -22.2 57 57 SSE 10 17 30.8 1043 10 16.0934 0 0
12:54 pm 12:54 Cloudy 5 -15 -7 -21.7 57 57 SSE 6 9 30.77 1042 10 16.0934 0 0
1:54 pm 13:54 Cloudy 6 -14.4 -8 -22.2 52 52 SSE 13 20 30.73 1041 10 16.0934 0 0
2:54 pm 14:54 Cloudy 7 -13.9 -6 -21.1 55 55 SE 10 17 30.7 1040 10 16.0934 0 0
3:54 pm 15:54 Cloudy 7 -13.9 -6 -21.1 55 55 SE 10 17 30.68 1039 10 16.0934 0 0
4:28 pm 16:28 Cloudy 7 -13.9 -6 -21.1 55 55 SSE 16 26 30.68 1039 10 16.0934 0 0
4:54 pm 16:54 Cloudy 7 -13.9 -6 -21.1 55 55 SSE 14 22 30.65 1038 10 16.0934 0 0
5:04 pm 17:04 Cloudy 7 -13.9 -6 -21.1 55 55 SE 9 15 30.65 1038 10 16.0934 0 0
5:36 pm 17:36 Cloudy 7 -13.9 -5 -20.6 57 57 SSE 12 19 30.68 1039 10 16.0934 0 0
5:54 pm 17:54 Cloudy 7 -13.9 -5 -20.6 57 57 SSE 10 17 30.66 1038 10 16.0934 0 0
6:54 pm 18:54 Cloudy 8 -13.3 -4 -20 57 57 SE 13 20 30.64 1038 10 16.0934 0 0
7:54 pm 19:54 Cloudy 8 -13.3 -1 -18.3 66 66 SSE 13 20 30.62 1037 10 16.0934 0 0
8:09 pm 20:09 Cloudy 8 -13.3 -1 -18.3 66 66 SSE 14 22 30.62 1037 10 16.0934 0 0
8:54 pm 20:54 Cloudy with Light Snow 9 -12.8 0 -17.8 66 66 SE 10 17 30.61 1037 7 11.26538 0 0.0254
9:18 pm 21:18 Cloudy 9 -12.8 0 -17.8 66 66 SE 12 19 30.62 1037 10 16.0934 0 0.0254
9:54 pm 21:54 Cloudy 9 -12.8 0 -17.8 66 66 SE 12 19 30.59 1036 10 16.0934 0 0.0254
10:16 pm 22:16 Cloudy 9 -12.8 1 -17.2 70 70 SE 13 20 30.62 1037 10 16.0934 0 0
10:54 pm 22:54 Cloudy 10 -12.2 1 -17.2 67 67 SE 10 17 30.57 1035 10 16.0934 0 0
11:54 pm 23:54 Cloudy 10 -12.2 2 -16.7 69 69 SE 10 17 30.54 1034 10 16.0934 0 0

Powered by AerisWeather